Other Public Products
Issued by NWS Grand Forks, ND

Home | Current Version | Previous Version | Graphics & Text | Print | Product List | Glossary On
Versions: 1 2 3 4 5 6 7 8 9 10 11 12 13 14 15 16 17 18 19 20 21 22 23 24 25 26 27 28 29 30 31 32 33 34 35 36 37 38 39 40 41 42 43 44 45 46 47 48 49 50
000
FPUS83 KFGF 170731
OPUFGF
PRAIRIE TO PINES WEATHER ROUNDUP
NATIONAL WEATHER SERVICE EASTERN NORTH DAKOTA/GRAND FORKS ND
200 AM CDT TUE OCT 17 2017

 **SATELLITE DATA USED TO AUGMENT SKY COVER AT AUTOMATED STATIONS**
 *****  WEATHER ACROSS EASTERN NORTH DAKOTA  *****

CITY           SKY/WX    TMP DP  RH WIND       PRES   REMARKS
GRAND FORKS    FAIR      39  33  79 SW6       29.90R
GRAND FORKS AF FAIR      39  33  80 W6        29.90R
GRAND CITY NWS NOT AVBL
BUXTON           N/A     43  36  76 W3          N/A
DEVILS LAKE    FAIR      38  35  89 SE3       29.92R
FARGO          FAIR      42  36  79 SW6       29.93R
WAHPETON ARPT  NOT AVBL
$$

 *****  WEATHER ACROSS CENTRAL AND WESTERN NORTH DAKOTA  *****

CITY           SKY/WX    TMP DP  RH WIND       PRES   REMARKS
JAMESTOWN      FAIR      42  33  70 W5        29.94R
BISMARCK       FAIR      35  30  82 CALM      29.98S
MINOT          FAIR      47  34  60 SW12      29.88S
MINOT AFB      FAIR      42  31  66 SW12      29.86S
GARRISON         N/A     41  38  89 S3        29.92F
WILLISTON      FAIR      38  32  79 SW3       29.90S
DICKINSON      FAIR      42  30  62 S9        29.96F
HETTINGER      FAIR      31  24  75 CALM      30.03F
$$

 *****  OTHER OBSERVATIONS NORTHEAST NORTH DAKOTA  *****

CITY           SKY/WX    TMP DP  RH WIND       PRES   REMARKS
WALHALLA       FAIR     N/A N/A N/A SW6       29.86F
LANGDON        FAIR      36  30  80 SW8       29.90S
CAVALIER       FAIR      48  37  66 CALM      29.87S
GRAFTON        FAIR      36  30  80 SW5       29.90S
CANDO          FAIR      34  34 100 SW3       29.92S
FORT TOTTEN      N/A     44  33  64 SE2       29.95S
ROLLA          FAIR      39  30  70 S8        29.88F
RUGBY          FAIR      41  34  75 S9        29.89S
 ***** THE ABOVE OBSERVATIONS ARE NON NWS ARE NOT QUALITY
        CONTROLLED AND MAY MIS-REPORT RAIN FOR SNOW...
$$

 *****  OTHER OBSERVATIONS SOUTHEAST NORTH DAKOTA *****

CITY           SKY/WX    TMP DP  RH WIND       PRES   REMARKS
COOPERSTOWN    FAIR      36  32  87 W6        29.94S
VALLEY CITY    FAIR      43  36  75 W5        29.95S
OAKES          NOT AVBL
GWINNER          N/A     41  36  81 W12       29.95S
SHEYENNE NWR     N/A     39  37  91 W5        29.95
BUFFALO          N/A     42  32  65 W6          N/A
WYNDMERE       NOT AVBL
 ***** THE ABOVE OBSERVATIONS ARE NON NWS ARE NOT QUALITY
       CONTROLLED AND MAY MIS-REPORT RAIN FOR SNOW...
$$

  *****  WEATHER ACROSS NORTHERN MINNESOTA  *****

CITY           SKY/WX    TMP DP  RH WIND       PRES   REMARKS
FLAG ISLAND    FAIR      48  39  71 W6        29.85R
WARROAD        FAIR      45  37  76 W6        29.89R
ROSEAU           N/A     46  37  71 SW5       29.89R
HALLOCK        FAIR      36  27  69 SE7       29.88R
THF RVR FALLS  FAIR      47  34  60 SW3       29.91S
HALSTAD          N/A     37  30  77 S6          N/A
FOSSTON        FAIR      37  30  75 S6        29.93S
BAUDETTE       FAIR      49  36  61 W7        29.87R
WASKISH        FAIR      46  43  87 CALM      29.90R
CROOKSTON      FAIR      36  30  80 SE6       29.92S
$$
  *****  WEATHER ACROSS CENTRAL AND WEST MINNESOTA  *****

CITY           SKY/WX    TMP DP  RH WIND       PRES   REMARKS
BEMIDJI        FAIR      38  33  82 W5        29.92S
PARK RAPIDS    FAIR      42  38  85 CALM      29.93R
WADENA         FAIR      43  39  87 CALM      29.94S
DETROIT LAKES  FAIR      43  41  93 CALM      29.95S
MOORHEAD       FAIR      45  36  70 CALM      29.94S
FERGUS FALLS   FAIR      45  39  81 S3        29.96R
ELBOW LAKE     FAIR      43  40  89 CALM      29.96S
MORRIS MN      FAIR      43  39  87 W3        29.95S
STAPLES        FAIR      43  37  81 CALM      29.94S
WHEATON        FAIR      48  37  66 SW5       29.97S
$$
  *****  WEATHER ELSEWHERE ACROSS MINNESOTA  *****

CITY           SKY/WX    TMP DP  RH WIND       PRES   REMARKS
DULUTH         FAIR      43  37  79 W9        29.90R
INTRNTL FALLS  FAIR      46  35  65 W7        29.86R
ELY            FAIR      46  37  71 SW3       29.87R
CLOQUET        FAIR      46  36  66 W6        29.91R
BRAINERD       FAIR      43  38  82 S3        29.94R
HIBBING        FAIR      33  32  96 CALM      29.89R
ALEXANDRIA     FAIR      49  41  74 W5        29.96R
SAINT CLOUD    FAIR      41  39  93 CALM      29.95R
MINNEAPOLIS    FAIR      54  41  61 SW3       29.97R
$$

  *****  WEATHER ACROSS SOUTH DAKOTA  *****

CITY           SKY/WX    TMP DP  RH WIND       PRES   REMARKS
SIOUX FALLS    FAIR      42  39  89 CALM      30.02S
BROOKINGS      FAIR      47  39  74 CALM      30.02R
WATERTOWN      FAIR      43  39  86 CALM      29.99R
HURON          FAIR      42  39  89 CALM      30.01R
SISSETON         N/A     47  39  74 CALM      29.95S
ABERDEEN       FAIR      37  34  89 SW5       29.99R
MITCHELL       FAIR      49  40  71 SW6       30.02S
PIERRE         FAIR      47  37  68 W9        30.02S
MOBRIDGE       FAIR      38  34  85 N3        29.99R
RAPID CITY     FAIR      40  28  62 NW7       30.09F
$$

  *****  SOME WEATHER IN NEARBY STATES *****

CITY           SKY/WX    TMP DP  RH WIND       PRES   REMARKS
GLASGOW MT     FAIR      54  26  34 SW5       29.87S
GREAT FALLS MT FAIR      55  23  28 SW20G30   29.98F
CHEYENNE WY    FAIR      44  12  27 W10       30.28S
SCOTTSBLUFF NE FAIR      36  26  67 NW5       30.18F
OMAHA NE       FAIR      51  41  68 S12       30.11F
DES MOINES IA  FAIR      54  41  61 S12       30.12F
DAVENPORT IA   FAIR      53  37  54 SW10      30.19S
CHICAGO IL     FAIR      50  38  63 SW7       30.19F
EAU CLAIRE WI  FAIR      43  39  86 CALM      29.98R
LA CROSSE WI   FAIR      54  42  64 S8        30.03S
$$

  *****  SOME NATIONAL WEATHER *****

CITY           SKY/WX    TMP DP  RH WIND       PRES   REMARKS
LA GUARDIA NY  FAIR      47  34  60 NW10      30.24R
RALEIGH NC     FAIR      49  43  80 NE6       30.25S
ATLANTA GA     FAIR      54  42  64 E13       30.23S
NEW ORLEANS LA FAIR      63  51  65 NE14G23   30.16S
OKLAHOMA CITY  FAIR      45  40  82 S5        30.27F
ALBUQUERQUE NM FAIR      53  25  33 SE6       30.36S
SALT LAKE CITY FAIR      45  34  65 NW3       30.32S
LOS ANGELES CA FAIR      70  52  52 E3        30.00F
BOISE ID       FAIR      46  30  53 SE7       30.24F
SEATTLE WA     MOCLDY    51  47  86 S12       30.06F
$$

*** WEATHER ACROSS MANITOBA...SASKATCHEWAN AND ONTARIO ***
                ***ONTARIO***

CITY           SKY/WX    TMP DP  RH WIND       PRES   REMARKS
GERALDTON      CLEAR     46  39  76 SW13      29.67S
THUNDER BAY    CLEAR     41  37  87 W7        29.79R
SIOUX LOOKOUT  CLEAR     46  36  66 NW7       29.77R
TORONTO        PTCLDY    39  30  70 W2        30.24F
BIG TROUT LK   MOCLDY    41  37  87 NW16G28   29.49R
PICKLE LAKE    NOT AVBL
DRYDEN         CLEAR     45  37  76 W7        29.80R
KENORA         CLEAR     50  36  57 W7        29.84
$$
                *** MANITOBA***

CITY           SKY/WX    TMP DP  RH WIND       PRES   REMARKS
BRANDON        CLEAR     36  30  80 W5        29.83F
DAUPHIN        MOCLDY    41  30  65 SE5       29.79S
ISLAND LAKE    PTCLDY    39  34  81 NW14G21   29.71R
PILOT MOUND      N/A     34  28  80 S6          N/A
THE PAS        CLOUDY    43  34  70 E6        29.73F
THOMPSON       MOCLDY    30  30 100 W6        29.76R WCI  24
WINNIPEG       PTCLDY    41  34  75 W3        29.84F
LYNN LAKE      CLOUDY    28  28 100 E6        29.72F WCI  22
CHURCHILL      CLOUDY    25  23  93 NW14G21   29.73R WCI  13
GILLAM         CLOUDY    32  30  93 N17       29.70R WCI  21
$$
                ***SASKATCHEWAN***

CITY           SKY/WX    TMP DP  RH WIND       PRES   REMARKS
ESTEVAN        CLEAR     45  32  61 SW13      29.81F
KINDERSLEY     CLEAR     50  34  53 SW13      29.63R
LLOYDMINSTER   CLEAR     36  28  75 SW5       29.57S
PRINCE ALBERT  CLOUDY    43  30  61 E7        29.66F
REGINA         CLEAR     43  30  61 SW9       29.73S
YORKTON        CLOUDY    43  32  65 S9        29.74F



USA.gov is the U.S. government's official web portal to all federal, state and local government web resources and services.